User: anonymous   Login
Location: Carrer del Canonge
(41.4901°N, 2.2931°E)
Time: 12:20:12
(UTC+00:00)
Language:

Cosmos 1833 Rocket - Orbit

View from above orbital plane
View from above orbital plane
View from above satellite
View from above satellite

Ground track
Ground track

The orbit data is extracted from the following two-line orbital elements,

1 17590U 87027B   20330.87597597 -.00000103 +00000-0 -27596-4 0  9990
2 17590 071.0046 021.4617 0005789 210.5304 149.5483 14.16793338742021
Epoch (UTC): 25 November 2020 21:01:24
Eccentricity: 0.0005789
inclination: 71.0046°
perigee height: 832 km
apogee height: 840 km
right ascension of ascending node: 21.4617°
argument of perigee: 210.5304°
revolutions per day: 14.16793338
mean anomaly at epoch: 149.5483°
orbit number at epoch: 74202

The dashed part of the orbit path shows where the satellite is in the earth's shadow,  

DLR